This is the latest recevied weather packets stored in our database for station/object DL9GRB-13. If no packets are shown the sender has not sent any weather packets the latest 10 day(s).
| Time | Temp. | Humidity | Pressure | Rain* | Wind** | Luminosity | Snow |
|---|---|---|---|---|---|---|---|
| 1777879867 | 12.78° C | 80% | 1010.5 hPa | 0 mm | - | 79 W/m² | - |
| 1777879687 | 12.78° C | 79% | 1010.4 hPa | 0 mm | - | 103 W/m² | - |
| 1777879507 | 12.78° C | 79% | 1010.3 hPa | 0 mm | - | 101 W/m² | - |
| 1777879327 | 12.78° C | 79% | 1010.3 hPa | 0 mm | - | 76 W/m² | - |
| 1777879147 | 13.33° C | 79% | 1010.5 hPa | 0 mm | - | 131 W/m² | - |
| 1777878967 | 13.33° C | 79% | 1010.3 hPa | 0 mm | - | 146 W/m² | - |
| 1777878787 | 13.33° C | 79% | 1010.5 hPa | 0 mm | - | 134 W/m² | - |
| 1777878607 | 13.33° C | 79% | 1010.3 hPa | 0 mm | - | 136 W/m² | - |
| 1777878427 | 13.33° C | 79% | 1010.2 hPa | 0 mm | - | 112 W/m² | - |
| 1777878247 | 13.33° C | 79% | 1010.3 hPa | 0 mm | - | 102 W/m² | - |
| 1777878067 | 13.33° C | 79% | 1010.3 hPa | 0 mm | - | 84 W/m² | - |
| 1777877887 | 13.33° C | 79% | 1010.3 hPa | 0 mm | - | 75 W/m² | - |
| 1777877707 | 13.33° C | 79% | 1010.1 hPa | 0 mm | - | 76 W/m² | - |
| 1777877527 | 13.33° C | 79% | 1010 hPa | 0 mm | - | 73 W/m² | - |
| 1777877347 | 13.89° C | 79% | 1010 hPa | 0 mm | - | 80 W/m² | - |
| 1777877167 | 13.89° C | 79% | 1010 hPa | 0 mm | - | 85 W/m² | - |
| 1777876987 | 13.89° C | 79% | 1009.8 hPa | 0 mm | - | 68 W/m² | - |
| 1777876807 | 13.89° C | 79% | 1009.9 hPa | 0 mm | - | 101 W/m² | - |
| 1777876627 | 13.89° C | 79% | 1009.8 hPa | 0 mm | - | 123 W/m² | - |
| 1777876447 | 13.89° C | 79% | 1009.6 hPa | 0 mm | - | 71 W/m² | - |
| 1777876267 | 14.44° C | 79% | 1009.7 hPa | 0 mm | - | 75 W/m² | - |
| 1777876087 | 14.44° C | 79% | 1009.6 hPa | 0 mm | - | 85 W/m² | - |
| 1777875907 | 14.44° C | 78% | 1009.5 hPa | 0 mm | - | 86 W/m² | - |
| 1777875727 | 14.44° C | 79% | 1009.3 hPa | 0 mm | - | 220 W/m² | - |
| 1777875547 | 14.44° C | 79% | 1009.4 hPa | 0 mm | - | 177 W/m² | - |
* Rain latest hour (hover to see other rain measurements)
** Current wind speed in m/s (hover to see current wind gust speed)